| time (UTC) | temp F | wind direction | speed knots | gust knots | rain 1hr in | rain 24hr in | rain mn in | humidity % | barometer mb |
| 20260508011550 | 0 | 0.0 | 0.0 | 0.00 | 0.00 | 0.00 | 1001.5 | ||
| 20260508010048 | 0 | 0.0 | 0.0 | 0.00 | 0.00 | 0.00 | 1001.1 | ||
| 20260508004549 | 0 | 0.0 | 0.0 | 0.00 | 0.00 | 0.00 | 1001.4 | ||
| 20260508003044 | 0 | 0.0 | 0.0 | 0.00 | 0.00 | 0.00 | 1001.6 | ||
| 20260508001547 | 0 | 0.0 | 0.0 | 0.00 | 0.00 | 0.00 | 1001.7 | ||
| 20260508000105 | 0 | 0.0 | 0.0 | 0.00 | 0.00 | 0.00 | 1001.7 | ||
| 20260507234546 | 0 | 0.0 | 0.0 | 0.00 | 0.00 | 0.00 | 1001.7 | ||
| 20260507233049 | 0 | 0.0 | 0.0 | 0.00 | 0.00 | 0.00 | 1001.7 | ||
| 20260507231555 | 0 | 0.0 | 0.0 | 0.00 | 0.00 | 0.00 | 1001.3 | ||
| 20260507230047 | 0 | 0.0 | 0.0 | 0.00 | 0.00 | 0.00 | 1001.4 | ||
| 20260507224553 | 0 | 0.0 | 0.0 | 0.00 | 0.00 | 0.00 | 1001.5 | ||
| 20260507223048 | 0 | 0.0 | 0.0 | 0.00 | 0.00 | 0.00 | 1001.7 | ||
| 20260507221551 | 0 | 0.0 | 0.0 | 0.00 | 0.00 | 0.00 | 1001.6 | ||
| 20260507220048 | 0 | 0.0 | 0.0 | 0.00 | 0.00 | 0.00 | 1001.8 | ||
| 20260507214549 | 0 | 0.0 | 0.0 | 0.00 | 0.00 | 0.00 | 1002.1 | ||
| 20260507213047 | 0 | 0.0 | 0.0 | 0.00 | 0.00 | 0.00 | 1001.8 | ||
| 20260507211550 | 0 | 0.0 | 0.0 | 0.00 | 0.00 | 0.00 | 1001.7 | ||
| 20260507210048 | 0 | 0.0 | 0.0 | 0.00 | 0.00 | 0.00 | 1001.7 | ||
| 20260507204543 | 0 | 0.0 | 0.0 | 0.00 | 0.00 | 0.00 | 1001.1 | ||
| 20260507203051 | 0 | 0.0 | 0.0 | 0.00 | 0.00 | 0.00 | 1001.5 | ||
| 20260507201547 | 0 | 0.0 | 0.0 | 0.00 | 0.00 | 0.00 | 1002.5 | ||
| 20260507200047 | 0 | 0.0 | 0.0 | 0.00 | 0.00 | 0.00 | 1002.7 | ||
| 20260507194544 | 0 | 0.0 | 0.0 | 0.00 | 0.00 | 0.00 | 1003.3 | ||
| 20260507193051 | 0 | 0.0 | 0.0 | 0.00 | 0.00 | 0.00 | 1003.4 | ||
| 20260507191541 | 0 | 0.0 | 0.0 | 0.00 | 0.00 | 0.00 | 1003.9 | ||
| 20260507190046 | 0 | 0.0 | 0.0 | 0.00 | 0.00 | 0.00 | 1004.3 | ||
| 20260507184549 | 0 | 0.0 | 0.0 | 0.00 | 0.00 | 0.00 | 1004.3 | ||
| 20260507183045 | 0 | 0.0 | 0.0 | 0.00 | 0.00 | 0.00 | 1004.5 | ||
| 20260507181543 | 0 | 0.0 | 0.0 | 0.00 | 0.00 | 0.00 | 1005.0 | ||
| 20260507180042 | 0 | 0.0 | 0.0 | 0.00 | 0.00 | 0.00 | 1004.9 | ||
| 20260507174614 | 0 | 0.0 | 0.0 | 0.00 | 0.00 | 0.00 | 1004.1 | ||
| 20260507173048 | 0 | 0.0 | 0.0 | 0.00 | 0.00 | 0.00 | 1004.2 | ||
| 20260507171601 | 0 | 0.0 | 0.0 | 0.00 | 0.00 | 0.00 | 1004.4 | ||
| 20260507170048 | 0 | 0.0 | 0.0 | 0.00 | 0.00 | 0.00 | 1004.6 | ||
| 20260507164552 | 0 | 162 | 5.2 | 10.4 | 0.00 | 0.00 | 0.00 | 1005.2 | |
| 20260507163048 | 0 | 157 | 7.0 | 13.0 | 0.00 | 0.00 | 0.00 | 1006.0 | |
| 20260507161552 | 0 | 204 | 9.6 | 20.0 | 0.00 | 0.00 | 0.00 | 1006.1 | |
| 20260507160110 | 0 | 185 | 9.6 | 22.6 | 0.00 | 0.00 | 0.00 | 1006.7 | |
| 20260507154547 | 0 | 198 | 12.2 | 18.2 | 0.00 | 0.00 | 0.00 | 1006.8 | |
| 20260507153044 | 0 | 144 | 11.3 | 20.0 | 0.00 | 0.00 | 0.00 | 1007.2 | |
| 20260507151543 | 0 | 154 | 13.0 | 20.9 | 0.00 | 0.00 | 0.00 | 1007.4 | |
| 20260507150051 | 0 | 167 | 13.0 | 18.2 | 0.00 | 0.00 | 0.00 | 1007.8 | |
| 20260507144551 | 0 | 178 | 7.8 | 19.1 | 0.00 | 0.00 | 0.00 | 1007.8 | |
| 20260507143052 | 0 | 204 | 9.6 | 13.9 | 0.00 | 0.00 | 0.00 | 1007.9 | |
| 20260507141547 | 0 | 134 | 10.4 | 18.2 | 0.00 | 0.00 | 0.00 | 1008.2 | |
| 20260507140053 | 0 | 142 | 14.8 | 19.1 | 0.00 | 0.00 | 0.00 | 1008.5 | |
| 20260507134544 | 0 | 153 | 9.6 | 19.1 | 0.00 | 0.00 | 0.00 | 1008.5 | |
| 20260507133057 | 0 | 179 | 10.4 | 16.5 | 0.00 | 0.00 | 0.00 | 1008.7 | |
| 20260507131613 | 0 | 196 | 7.0 | 22.6 | 0.00 | 0.00 | 0.00 | 1009.1 | |
| 20260507130047 | 0 | 170 | 18.2 | 25.2 | 0.00 | 0.00 | 0.00 | 1009.2 | |
| 20260507124553 | 0 | 164 | 13.9 | 19.1 | 0.00 | 0.00 | 0.00 | 1008.6 | |
| 20260507123047 | 0 | 143 | 10.4 | 16.5 | 0.00 | 0.00 | 0.00 | 1009.0 | |
| 20260507121543 | 0 | 157 | 13.9 | 22.6 | 0.00 | 0.00 | 0.00 | 1009.0 | |
| 20260507120044 | 0 | 163 | 14.8 | 24.3 | 0.00 | 0.00 | 0.00 | 1009.9 | |
| 20260507114548 | 0 | 197 | 15.6 | 22.6 | 0.00 | 0.00 | 0.00 | 1009.9 | |
| 20260507113109 | 0 | 147 | 14.8 | 20.9 | 0.00 | 0.00 | 0.00 | 1010.5 | |
| 20260507111547 | 0 | 150 | 15.6 | 25.2 | 0.00 | 0.00 | 0.00 | 1010.4 | |
| 20260507110047 | 0 | 196 | 7.0 | 18.2 | 0.00 | 0.00 | 0.00 | 1010.7 | |
| 20260507104554 | 0 | 167 | 12.2 | 18.2 | 0.00 | 0.00 | 0.00 | 1010.7 | |
| 20260507103048 | 0 | 184 | 6.1 | 18.2 | 0.00 | 0.00 | 0.00 | 1011.2 | |
| 20260507101542 | 0 | 220 | 13.9 | 26.1 | 0.00 | 0.00 | 0.00 | 1011.7 | |
| 20260507100057 | 0 | 203 | 14.8 | 19.1 | 0.00 | 0.00 | 0.00 | 1011.6 | |
| 20260507094547 | 0 | 219 | 13.0 | 18.2 | 0.00 | 0.00 | 0.00 | 1011.6 | |
| 20260507093045 | 0 | 197 | 8.7 | 14.8 | 0.00 | 0.00 | 0.00 | 1011.4 | |
| 20260507091547 | 0 | 217 | 8.7 | 19.1 | 0.00 | 0.00 | 0.00 | 1011.5 | |
| 20260507090042 | 0 | 225 | 7.0 | 11.3 | 0.00 | 0.00 | 0.00 | 1011.8 | |
| 20260507084557 | 0 | 196 | 7.8 | 11.3 | 0.00 | 0.00 | 0.00 | 1011.7 | |
| 20260507083049 | 0 | 220 | 6.1 | 9.6 | 0.00 | 0.00 | 0.00 | 1011.7 | |
| 20260507081547 | 0 | 160 | 7.8 | 13.9 | 0.00 | 0.00 | 0.00 | 1011.9 | |
| 20260507080047 | 0 | 194 | 2.6 | 8.7 | 0.00 | 0.00 | 0.00 | 1012.3 | |
| 20260507074554 | 0 | 158 | 6.1 | 13.0 | 0.00 | 0.00 | 0.00 | 1012.4 | |
| 20260507073043 | 0 | 158 | 4.3 | 12.2 | 0.00 | 0.00 | 0.00 | 1012.7 | |
| 20260507071550 | 0 | 174 | 5.2 | 12.2 | 0.00 | 0.00 | 0.00 | 1013.3 | |
| 20260507064547 | 0 | 210 | 10.4 | 13.9 | 0.00 | 0.00 | 0.00 | 1013.6 | |
| 20260507063052 | 0 | 157 | 4.3 | 8.7 | 0.00 | 0.00 | 0.00 | 1013.7 | |
| 20260507061545 | 0 | 220 | 6.1 | 9.6 | 0.00 | 0.00 | 0.00 | 1013.6 | |
| 20260507060050 | 0 | 213 | 6.1 | 8.7 | 0.00 | 0.00 | 0.00 | 1014.1 | |
| 20260507054545 | 0 | 194 | 4.3 | 9.6 | 0.00 | 0.00 | 0.00 | 1014.1 | |
| 20260507053047 | 0 | 186 | 2.6 | 9.6 | 0.00 | 0.00 | 0.00 | 1014.5 | |
| 20260507051548 | 0 | 135 | 9.6 | 11.3 | 0.00 | 0.00 | 0.00 | 1014.7 | |
| 20260507050107 | 0 | 142 | 7.0 | 10.4 | 0.00 | 0.00 | 0.00 | 1015.2 | |
| 20260507044553 | 0 | 148 | 1.7 | 7.0 | 0.00 | 0.00 | 0.00 | 1015.4 | |
| 20260507043049 | 0 | 120 | 4.3 | 9.6 | 0.00 | 0.00 | 0.00 | 1015.5 | |
| 20260507041554 | 0 | 134 | 5.2 | 9.6 | 0.00 | 0.00 | 0.00 | 1015.9 | |
| 20260507040050 | 0 | 182 | 3.5 | 9.6 | 0.00 | 0.00 | 0.00 | 1016.1 | |
| 20260507034550 | 0 | 140 | 4.3 | 9.6 | 0.00 | 0.00 | 0.00 | 1016.1 | |
| 20260507033049 | 0 | 152 | 4.3 | 8.7 | 0.00 | 0.00 | 0.00 | 1016.4 | |
| 20260507031552 | 0 | 160 | 3.5 | 10.4 | 0.00 | 0.00 | 0.00 | 1016.7 | |
| 20260507030051 | 0 | 141 | 7.8 | 11.3 | 0.00 | 0.00 | 0.00 | 1016.8 | |
| 20260507024549 | 0 | 150 | 6.1 | 12.2 | 0.00 | 0.00 | 0.00 | 1017.2 | |
| 20260507023048 | 0 | 130 | 10.4 | 14.8 | 0.00 | 0.00 | 0.00 | 1017.2 | |
| 20260507021555 | 0 | 152 | 7.0 | 12.2 | 0.00 | 0.00 | 0.00 | 1017.1 | |
| 20260507020043 | 0 | 159 | 7.0 | 14.8 | 0.00 | 0.00 | 0.00 | 1017.4 | |
| 20260507014551 | 0 | 157 | 8.7 | 13.0 | 0.00 | 0.00 | 0.00 | 1017.6 | |
| 20260507013050 | 0 | 205 | 5.2 | 8.7 | 0.00 | 0.00 | 0.00 | 1017.8 |